カタログに戻る

THOR ABLESTAR DEB

運用中LEO
NORAD 3164·DEBRIS·🇺🇸 United States

打ち上げ Jun 29, 1961 から Cape Canaveral Space Force Station

Loading…

次のパス (今後24時間)

TLE

最新Source: Space-Track

元期: Sep 13, 2026, 22:16 UTC

1  3164U 61015HZ  26256.92828149  .00000632  00000-0  44040-3 0  9997
2  3164  66.7450 227.5931 0048986 337.0187  22.8706 14.04547551100278

AllMySatでTHOR ABLESTAR DEBをリアルタイム追跡

Download on the App Store